Flag for Canada Weather past 2 weeks in Cambridge, Ontario, Canada

Now
64 °F

Scattered clouds.


Feels Like: 64 °F
Forecast: N/A
Wind: 21 mph from Northwest

Location: Waterloo Well

Current Time: Jul 28, 2014 at 5:24:44 PM

Latest Report: Jul 28, 2014 at 5:00 PM


Visibility: 9 mi

Pressure: 29.85 "Hg

Humidity: 60%

Dew point: 50 °F

Location of CambridgeLocation

Historic Weather in Cambridge — Graph

°F

Cambridge temperature yesterday

Maximum temperature yesterday: 79 °F (at 1:00 PM)
Minimum temperature yesterday: 63 °F (at 9:00 PM)
Average temperature yesterday: 70 °F

Past Weeks' High & Low Weather Summary

 TemperatureHumidityPressure
High82 °F (Jul 21, 4:00 PM)100% (Jul 14, 4:00 AM)30.26 "Hg (Jul 14, 4:00 AM)
Low45 °F (Jul 17, 4:00 AM)34% (Jul 17, 3:00 PM)29.59 "Hg (Jul 28, 12:57 AM)
Average64 °F77%29.96 "Hg
* Reported Jul 13 4:00 PM — Jul 28 4:00 PM, Cambridge, Weather by CustomWeather, © 2014

Note: Actual official high and low records may vary slightly from our data, if they occured in-between our weather recording intervals... More about our weather records

Advertising

Cambridge weather history for previous 24 hours

 ConditionsComfort  
Time TempWeatherWind HumidityBarometerVisibility
4:00 PM
Jul 28
66 °FScattered clouds.18 mph56%29.83 "Hg9 mi
3:00 PM64 °FScattered clouds.17 mph64%29.81 "Hg9 mi
2:00 PM68 °FScattered clouds.18 mph60%29.79 "Hg9 mi
1:00 PM64 °FPassing clouds.14 mph68%29.79 "Hg9 mi
12:00 PM61 °FScattered clouds.17 mph83%29.78 "Hg9 mi
11:00 AM61 °FMostly cloudy.14 mph83%29.76 "Hg9 mi
10:00 AM57 °FMostly cloudy.14 mph88%29.75 "Hg9 mi
9:58 AM57 °FMostly cloudy.12 mph88%29.75 "Hg9 mi
9:00 AM57 °FLight rain. Cloudy.13 mph94%29.72 "Hg9 mi
8:00 AM59 °FLight rain. Mostly cloudy.10 mph94%29.69 "Hg9 mi
7:00 AM61 °FRain. Fog.12 mph94%29.67 "Hg6 mi
6:55 AM61 °FRain. Fog.13 mph94%29.66 "Hg6 mi
6:02 AM61 °FHeavy rain. Fog.9 mph94%29.64 "Hg1 mi
5:56 AM61 °FHeavy rain. Fog.7 mph94%29.64 "Hg2 mi
5:00 AM63 °FRain. Fog.5 mph94%29.62 "Hg6 mi
4:00 AM63 °FLight rain. Mostly cloudy.7 mph94%29.61 "Hg8 mi
3:00 AM63 °FRain. Fog.5 mph94%29.61 "Hg4 mi
2:00 AM63 °FRain. Fog.7 mph94%29.61 "Hg5 mi
1:00 AM63 °FLight rain. Overcast.8 mph94%29.59 "Hg9 mi
12:57 AM63 °FLight rain. Overcast.8 mph94%29.59 "Hg9 mi
12:01 AM63 °FLight rain. Fog.5 mph94%29.63 "Hg5 mi
12:00 AM63 °FLight rain. Fog.5 mph94%29.63 "Hg5 mi
11:54 PM
Jul 27
63 °FLight rain. Fog.3 mph94%29.64 "Hg4 mi
11:00 PM63 °FRain. Fog.2 mph94%29.68 "Hg5 mi
10:58 PM63 °FRain. Fog.2 mph94%29.68 "Hg5 mi
10:00 PM63 °FRain. Mostly cloudy.6 mph88%29.69 "Hg9 mi
9:00 PM63 °FThunderstorms. Overcast.12 mph94%29.64 "Hg9 mi
8:00 PM64 °FThunderstorms. More clouds than sun.6 mph88%29.65 "Hg9 mi
7:04 PM68 °FThunderstorms. Cloudy.30 mph78%29.61 "Hg9 mi
6:54 PM72 °FThunderstorms. Broken clouds.18 mph73%29.63 "Hg9 mi
6:00 PM77 °FScattered clouds.5 mph65%29.62 "Hg9 mi
5:00 PM79 °FScattered clouds.6 mph61%29.62 "Hg9 mi
Weather by CustomWeather, © 2014

See weather overviewHow to use our weather pages